This demonstration page uses our WeatherBlox Daily Observations layout. Learn more.

Left ArrowRight Arrow

40.92945, -100.16068

Hourly Observations for February 17, 2022

Temp ( °F °C ) Dew Point ( °F °C ) Humidity (%) Winds ( mph kmh ) Pressure ( in mb ) Visibility ( mi km ) Precip ( " mm )
12:15 am 00:15 Cloudy 24 -4.3 14 -10 65 65 N 15 24 30.28 1025 10 16 0.00 0.00
12:35 am 00:35 Cloudy 25 -4.1 11 -11.4 57 57 N 18 30 30.31 1026 10 16 0.00 0.00
12:55 am 00:55 Cloudy 24 -4.5 6 -14.2 47 47 NNE 16 26 30.33 1027 10 16 0.00 0.00
1:15 am 01:15 Cloudy 24 -4.7 4 -15.6 43 43 NNE 16 26 30.35 1028 10 16 0.00 0.00
1:35 am 01:35 Cloudy 23 -5.1 5 -15 46 46 N 17 28 30.35 1028 10 16 0.00 0.00
1:55 am 01:55 Cloudy 22 -5.5 5 -15 48 48 N 23 37 30.34 1028 10 16 0.00 0.00
2:15 am 02:15 Cloudy 21 -6 5 -15.2 49 49 N 22 35 30.33 1027 10 16 0.00 0.00
2:35 am 02:35 Partly Cloudy 20 -6.7 4 -15.3 51 51 N 18 30 30.36 1028 10 16 0.00 0.00
2:55 am 02:55 Partly Cloudy 19 -7.1 3 -15.9 50 50 N 22 35 30.37 1028 10 16 0.00 0.00
3:15 am 03:15 Mostly Cloudy 19 -7.5 2 -16.8 48 48 N 21 33 30.37 1029 10 16 0.00 0.00
3:35 am 03:35 Partly Cloudy 18 -7.6 2 -16.6 49 49 N 16 26 30.38 1029 10 16 0.00 0.00
3:55 am 03:55 Partly Cloudy 18 -7.7 2 -16.6 49 49 N 14 22 30.42 1030 10 16 0.00 0.00
4:15 am 04:15 Mostly Cloudy 18 -7.8 2 -16.8 49 49 NNE 17 28 30.42 1030 10 16 0.00 0.00
4:35 am 04:35 Cloudy 18 -8 1 -17.3 48 48 N 17 28 30.42 1030 10 16 0.00 0.00
4:55 am 04:55 Cloudy 17 -8.1 1 -17.2 48 48 N 17 28 30.43 1031 10 16 0.00 0.00
5:15 am 05:15 Cloudy 17 -8.5 1 -17.3 49 49 N 18 30 30.43 1030 10 16 0.00 0.00
5:35 am 05:35 Partly Cloudy 16 -9 0 -17.6 50 50 N 12 19 30.45 1031 10 16 0.00 0.00
5:55 am 05:55 Clear 15 -9.3 0 -18 50 50 N 14 22 30.45 1031 10 16 0.00 0.00
6:15 am 06:15 Clear 15 -9.5 0 -17.9 51 51 N 20 31 30.47 1032 10 16 0.00 0.00
6:35 am 06:35 Clear 14 -9.8 -1 -18.2 51 51 NNW 13 20 30.48 1032 10 16 0.00 0.00
6:55 am 06:55 Clear 14 -10 0 -18 52 52 N 15 24 30.48 1032 10 16 0.00 0.00
7:15 am 07:15 Clear 13 -10.5 -1 -18.1 54 54 NNW 13 20 30.50 1033 10 16 0.00 0.00
7:35 am 07:35 Sunny 12 -11 0 -18 57 57 NNW 13 20 30.50 1033 10 16 0.00 0.00
7:55 am 07:55 Sunny 12 -11.1 -1 -18.6 54 54 NNW 12 19 30.50 1033 10 16 0.00 0.00
8:15 am 08:15 Sunny 12 -11.2 -2 -19 53 53 NNW 10 17 30.52 1033 10 16 0.00 0.00
8:35 am 08:35 Sunny 11 -11.5 -2 -19 54 54 NW 9 15 30.52 1033 10 16 0.00 0.00
8:55 am 08:55 Sunny 12 -11.1 -2 -19 52 52 NW 10 17 30.51 1033 10 16 0.00 0.00
9:15 am 09:15 Sunny 13 -10.5 -3 -19.6 48 48 NW 10 17 30.51 1033 10 16 0.00 0.00
9:35 am 09:35 Sunny 14 -9.8 -4 -20 43 43 NNW 10 17 30.51 1033 10 16 0.00 0.00
9:55 am 09:55 Sunny 16 -8.9 -3 -19.7 42 42 NNW 15 24 30.50 1033 10 16 0.00 0.00
10:15 am 10:15 Sunny 19 -7.5 -4 -20.1 36 36 NNW 13 20 30.49 1032 10 16 0.00 0.00
10:35 am 10:35 Sunny 20 -6.7 -4 -19.9 34 34 N 10 17 30.47 1032 10 16 0.00 0.00
10:55 am 10:55 Sunny 21 -6 -4 -19.9 33 33 NNW 10 17 30.46 1031 10 16 0.00 0.00
11:15 am 11:15 Sunny 23 -5 -3 -19.6 31 31 NNW 8 13 30.44 1031 10 16 0.00 0.00
11:35 am 11:35 Sunny 24 -4.4 -3 -19.5 30 30 NNW 9 15 30.43 1031 10 16 0.00 0.00
11:55 am 11:55 Sunny 25 -3.9 -3 -19.2 30 30 NW 7 11 30.43 1030 10 16 0.00 0.00
12:15 pm 12:15 Sunny 26 -3.6 -3 -19.6 28 28 NW 3 6 30.40 1030 10 16 0.00 0.00
12:35 pm 12:35 Sunny 26 -3.2 -4 -19.9 26 26 Calm 30.39 1029 10 16 0.00 0.00
12:55 pm 12:55 Sunny 28 -2.3 -3 -19.3 26 26 NW 5 7 30.37 1028 10 16 0.00 0.00
1:15 pm 13:15 Sunny 28 -2.2 -2 -19 27 27 W 6 9 30.36 1028 10 16 0.00 0.00
1:35 pm 13:35 Sunny 29 -1.4 -2 -18.9 25 25 NW 9 15 30.33 1027 10 16 0.00 0.00
1:55 pm 13:55 Sunny 30 -1.1 -1 -18.5 26 26 W 7 11 30.32 1027 10 16 0.00 0.00
2:15 pm 14:15 Sunny 31 -0.5 -3 -19.3 23 23 W 7 11 30.30 1026 10 16 0.00 0.00
2:35 pm 14:35 Sunny 32 -0.1 -3 -19.7 21 21 W 5 7 30.29 1026 10 16 0.00 0.00
2:55 pm 14:55 Sunny 32 0.2 -5 -20.7 19 19 WSW 8 13 30.28 1025 10 16 0.00 0.00
3:15 pm 15:15 Sunny 33 0.7 -6 -20.9 18 18 SW 7 11 30.26 1025 10 16 0.00 0.00
3:35 pm 15:35 Sunny 34 1 -5 -20.5 18 18 SW 7 11 30.25 1024 10 16 0.00 0.00
3:55 pm 15:55 Sunny 34 1.3 -4 -20.2 19 19 W 3 6 30.22 1024 10 16 0.00 0.00
4:15 pm 16:15 Sunny 36 2.3 3 -16.2 24 24 SW 10 17 30.20 1023 10 16 0.00 0.00
4:35 pm 16:35 Sunny 37 2.6 6 -14.3 28 28 W 12 19 30.20 1023 10 16 0.00 0.00
4:55 pm 16:55 Sunny 36 2.3 8 -13.6 30 30 WSW 8 13 30.20 1023 10 16 0.00 0.00
5:15 pm 17:15 Sunny 36 2 8 -13.1 32 32 WSW 10 17 30.20 1023 10 16 0.00 0.00
5:35 pm 17:35 Sunny 35 1.6 8 -13.2 33 33 WSW 9 15 30.20 1023 10 16 0.00 0.00
5:55 pm 17:55 Sunny 33 0.7 8 -13.3 35 35 SW 9 15 30.20 1023 10 16 0.00 0.00
6:15 pm 18:15 Sunny 32 -0.2 8 -13.6 36 36 SW 9 15 30.21 1023 10 16 0.00 0.00
6:35 pm 18:35 Clear 30 -1.2 8 -13.5 39 39 SW 9 15 30.23 1024 10 16 0.00 0.00
6:55 pm 18:55 Clear 27 -2.9 7 -13.9 43 43 SSW 7 11 30.25 1024 10 16 0.00 0.00
7:15 pm 19:15 Clear 25 -3.9 7 -13.8 47 47 SSW 8 13 30.26 1025 7 11 0.00 0.00
7:35 pm 19:35 Clear 22 -5.4 7 -14 51 51 S 9 15 30.27 1025 10 16 0.00 0.00
7:55 pm 19:55 Clear 25 -3.9 8 -13.4 48 48 S 8 13 30.26 1025 10 16 0.00 0.00
8:15 pm 20:15 Clear 22 -5.4 7 -14 51 51 S 8 13 30.26 1025 10 16 0.00 0.00
8:35 pm 20:35 Clear 25 -3.7 9 -12.6 50 50 SSW 7 11 30.24 1024 10 16 0.00 0.00
8:55 pm 20:55 Clear 24 -4.5 9 -12.6 54 54 S 8 13 30.24 1024 10 16 0.00 0.00
9:15 pm 21:15 Clear 25 -4 10 -12.3 53 53 SSW 9 15 30.24 1024 10 16 0.00 0.00
9:35 pm 21:35 Clear 25 -3.8 10 -12 53 53 SSW 8 13 30.24 1024 10 16 0.00 0.00
9:55 pm 21:55 Clear 28 -2.1 11 -11.4 49 49 SSW 14 22 30.20 1023 10 16 0.00 0.00
10:15 pm 22:15 Clear 29 -1.5 11 -11.5 47 47 SSW 15 24 30.19 1022 10 16 0.00 0.00
10:35 pm 22:35 Clear 30 -1 11 -11.8 44 44 SSW 16 26 30.18 1022 10 16 0.00 0.00
10:55 pm 22:55 Clear 30 -1 11 -11.6 45 45 SSW 16 26 30.19 1022 10 16 0.00 0.00
11:15 pm 23:15 Clear 31 -0.8 13 -10.7 47 47 SW 15 24 30.18 1022 10 16 0.00 0.00
11:35 pm 23:35 Clear 30 -1 13 -10.5 49 49 SW 20 31 30.18 1022 10 16 0.00 0.00
11:55 pm 23:55 Clear 29 -1.5 13 -10.3 52 52 SW 16 26 30.17 1022 10 16 0.00 0.00

Powered by AerisWeather